Tracking 31027 objects as of 19-Jul-2025
HD Live streaming from Space Station
objects crossing your sky now

OPS 0054 (DMSP 5A F1)

Track OPS 0054 (DMSP 5A F1) now!
10-day predictions
OPS 0054 (DMSP 5A F1) is classified as:


NORAD ID: 4331
Int'l Code: 1970-012A
Perigee: 743.7 km
Apogee: 824.9 km
Inclination: 99.0 °
Period: 100.4 minutes
Semi major axis: 7155 km
RCS: 0.986 m2 (medium)
Launch date: February 11, 1970
Source: United States (US)
Launch site: AIR FORCE WESTERN TEST RANGE (AFWTR)
Your satellite tracking list
ICEYE-X27
Track 1 satellite(s)




NASA's NSSDC Master Catalog

Two Line Element Set (TLE):
1 04331U 70012A   25199.73213343  .00000211  00000-0  90597-4 0  9991
2 04331  98.9802 359.7065 0056692 224.0642 135.6016 14.34368665889375
Source of the keplerian elements: AFSPC